QPF
0.03 0.03 0.04 0.04 0.04 0.04 0.03 0.03 0.04 0.05 0.06 0.06 0.04 0.04 0.03 0.02 0.02 0.03 0.02 0.03 0.04 0.05 0.04 0.06 0.09 0.10 0.10 0.10 0.10 0.09 0.09 0.10 0.11 0.08 0.08 0.09 0.11 0.11 0.10 0.08 0.06 0.04 0.03
0.02 0.02 0.03 0.03 0.04 0.03 0.03 0.03 0.03 0.03 0.03 0.04 0.04 0.03 0.02 0.03 0.03 0.02 0.02 0.02 0.03 0.04 0.04 0.05 0.06 0.09 0.11 0.11 0.10 0.09 0.09 0.11 0.11 0.11 0.10 0.10 0.09 0.09 0.09 0.09 0.06 0.05 0.04
0.02 0.02 0.03 0.03 0.02 0.02 0.03 0.03 0.03 0.04 0.03 0.03 0.05 0.03 0.03 0.03 0.04 0.03 0.03 0.03 0.02 0.03 0.03 0.05 0.05 0.07 0.09 0.11 0.10 0.10 0.12 0.12 0.12 0.14 0.13 0.14 0.13 0.12 0.12 0.11 0.10 0.11 0.06
0.01 0.02 0.02 0.02 0.02 0.02 0.02 0.02 0.03 0.03 0.03 0.03 0.04 0.03 0.04 0.04 0.03 0.03 0.03 0.02 0.02 0.02 0.02 0.03 0.04 0.05 0.05 0.06 0.06 0.08 0.10 0.11 0.12 0.14 0.13 0.11 0.10 0.12 0.12 0.12 0.12 0.12 0.10
0.01 0.01 0.01 0.02 0.02 0.02 0.03 0.03 0.03 0.03 0.02 0.03 0.03 0.04 0.03 0.03 0.02 0.03 0.03 0.02 0.01 0.01 0.01 0.02 0.02 0.03 0.02 0.03 0.03 0.05 0.06 0.06 0.08 0.09 0.09 0.07 0.07 0.09 0.10 0.11 0.11 0.11 0.11
0.01 0.01 0.01 0.02 0.02 0.02 0.03 0.03 0.03 0.03 0.02 0.02 0.02 0.03 0.03 0.02 0.03 0.03 0.02 0.02 0.02 0.02 0.01 0.02 0.02 0.02 0.02 0.03 0.03 0.03 0.03 0.03 0.04 0.05 0.06 0.06 0.05 0.07 0.10 0.12 0.12 0.11 0.10
0.02 0.02 0.02 0.02 0.02 0.02 0.01 0.02 0.02 0.02 0.02 0.02 0.02 0.02 0.03 0.03 0.03 0.03 0.02 0.02 0.02 0.02 0.02 0.02 0.02 0.02 0.04 0.04 0.04 0.04 0.03 0.03 0.03 0.04 0.04 0.04 0.05 0.06 0.09 0.09 0.09 0.09 0.09
0.03 0.03 0.02 0.02 0.02 0.02 0.02 0.02 0.02 0.03 0.02 0.03 0.02 0.03 0.04 0.03 0.04 0.04 0.04 0.03 0.02 0.02 0.02 0.02 0.02 0.03 0.04 0.05 0.04 0.04 0.03 0.04 0.04 0.03 0.03 0.03 0.04 0.06 0.07 0.07 0.08 0.08 0.07
0.03 0.03 0.03 0.03 0.03 0.03 0.03 0.03 0.03 0.03 0.02 0.02 0.02 0.03 0.04 0.03 0.04 0.04 0.03 0.02 0.02 0.02 0.02 0.02 0.02 0.02 0.04 0.04 0.03 0.03 0.03 0.04 0.05 0.04 0.03 0.03 0.02 0.03 0.04 0.05 0.06 0.07 0.06
0.01 0.02 0.02 0.03 0.03 0.03 0.02 0.02 0.02 0.02 0.03 0.03 0.03 0.04 0.03 0.03 0.04 0.04 0.02 0.02 0.02 0.03 0.03 0.02 0.03 0.02 0.02 0.02 0.03 0.03 0.03 0.03 0.03 0.03 0.02 0.01 0.02 0.02 0.03 0.03 0.04 0.05 0.05
0.02 0.02 0.02 0.03 0.03 0.03 0.03 0.03 0.03 0.03 0.03 0.04 0.04 0.04 0.04 0.03 0.03 0.03 0.02 0.01 0.01 0.01 0.02 0.02 0.01 0.01 0.02 0.02 0.02 0.03 0.02 0.02 0.03 0.03 0.03 0.02 0.02 0.03 0.03 0.03 0.05 0.05 0.05
0.04 0.05 0.04 0.04 0.04 0.04 0.05 0.04 0.04 0.04 0.04 0.04 0.04 0.04 0.04 0.03 0.02 0.02 0.01 0.01 0.01 0.01 0.01 0.02 0.01 0.02 0.02 0.01 0.01 0.01 0.02 0.02 0.03 0.04 0.03 0.02 0.02 0.03 0.03 0.03 0.04 0.05 0.06
0.02 0.03 0.03 0.04 0.05 0.06 0.07 0.07 0.07 0.08 0.06 0.05 0.05 0.04 0.03 0.03 0.02 0.02 0.02 0.01 0.01 0.01 0.01 0.02 0.01 0.01 0.01 0.01 0.01 0.01 0.02 0.02 0.05 0.07 0.04 0.03 0.03 0.03 0.02 0.03 0.03 0.05 0.05
0.01 0.02 0.03 0.03 0.03 0.04 0.05 0.05 0.06 0.07 0.07 0.06 0.05 0.04 0.04 0.04 0.03 0.03 0.03 0.02 0.02 0.02 0.02 0.02 0.01 0.01 0.01 0.01 0.01 0.01 0.01 0.02 0.03 0.03 0.03 0.02 0.02 0.02 0.02 0.02 0.03 0.04 0.05
0.02 0.03 0.04 0.03 0.04 0.05 0.06 0.07 0.07 0.07 0.06 0.06 0.04 0.04 0.05 0.05 0.04 0.04 0.03 0.02 0.02 0.02 0.02 0.02 0.02 0.02 0.01 0.01 0.02 0.03 0.03 0.03 0.02 0.02 0.02 0.02 0.02 0.02 0.02 0.01 0.02 0.03 0.04
0.03 0.03 0.03 0.04 0.04 0.05 0.06 0.07 0.08 0.07 0.07 0.06 0.04 0.04 0.04 0.03 0.02 0.01 0.01 0.02 0.01 0.02 0.02 0.03 0.03 0.03 0.04 0.04 0.04 0.04 0.03 0.02 0.02 0.02 0.02 0.02 0.03 0.02 0.02 0.01 0.02 0.03 0.04
0.03 0.03 0.03 0.03 0.04 0.04 0.05 0.07 0.08 0.08 0.08 0.07 0.05 0.04 0.03 0.02 0.02 0.01 0.01 0.01 0.01 0.01 0.01 0.02 0.04 0.04 0.05 0.05 0.04 0.03 0.02 0.02 0.03 0.02 0.02 0.02 0.03 0.04 0.03 0.02 0.02 0.02 0.03
0.02 0.03 0.03 0.04 0.05 0.06 0.07 0.08 0.08 0.08 0.08 0.08 0.05 0.04 0.03 0.02 0.02 0.02 0.01 0.01 0.01 0.01 0.02 0.03 0.04 0.04 0.05 0.03 0.03 0.03 0.03 0.03 0.03 0.03 0.02 0.02 0.03 0.02 0.02 0.02 0.02 0.02 0.02
0.04 0.04 0.04 0.04 0.05 0.07 0.08 0.08 0.08 0.09 0.07 0.06 0.05 0.03 0.02 0.02 0.02 0.02 0.02 0.02 0.02 0.03 0.03 0.03 0.03 0.03 0.03 0.03 0.04 0.04 0.04 0.04 0.04 0.03 0.03 0.03 0.02 0.02 0.02 0.02 0.02 0.02 0.02
0.07 0.06 0.05 0.04 0.04 0.05 0.05 0.06 0.07 0.07 0.07 0.07 0.05 0.03 0.03 0.02 0.02 0.03 0.03 0.02 0.03 0.03 0.02 0.02 0.02 0.02 0.02 0.03 0.03 0.03 0.05 0.05 0.05 0.05 0.05 0.04 0.04 0.03 0.03 0.03 0.04 0.03 0.02
0.09 0.09 0.07 0.06 0.06 0.07 0.06 0.07 0.07 0.06 0.06 0.07 0.07 0.07 0.07 0.05 0.04 0.03 0.03 0.02 0.02 0.01 0.01 0.01 0.01 0.01 0.01 0.01 0.02 0.03 0.04 0.05 0.05 0.05 0.06 0.05 0.05 0.05 0.04 0.04 0.05 0.03 0.03
0.08 0.08 0.06 0.06 0.06 0.08 0.10 0.07 0.05 0.04 0.05 0.05 0.05 0.05 0.06 0.06 0.04 0.04 0.03 0.02 0.02 0.01 0.01 0.01 0.01 0.00 0.00 0.01 0.01 0.02 0.03 0.04 0.04 0.05 0.05 0.05 0.05 0.05 0.05 0.05 0.05 0.04 0.03
0.03 0.03 0.04 0.04 0.05 0.08 0.11 0.07 0.06 0.06 0.05 0.05 0.04 0.04 0.04 0.04 0.03 0.03 0.03 0.02 0.01 0.01 0.01 0.01 0.01 0.01 0.01 0.01 0.01 0.02 0.03 0.03 0.04 0.05 0.05 0.04 0.04 0.05 0.05 0.06 0.06 0.05 0.04
0.02 0.02 0.03 0.04 0.05 0.06 0.06 0.06 0.05 0.04 0.05 0.04 0.04 0.03 0.03 0.03 0.02 0.03 0.02 0.01 0.01 0.01 0.01 0.01 0.01 0.01 0.01 0.01 0.01 0.01 0.02 0.03 0.03 0.05 0.05 0.05 0.04 0.05 0.05 0.06 0.07 0.06 0.05
0.04 0.04 0.03 0.03 0.04 0.04 0.04 0.05 0.05 0.04 0.04 0.03 0.03 0.02 0.01 0.02 0.02 0.02 0.02 0.01 0.01 0.01 0.01 0.01 0.01 0.01 0.02 0.02 0.02 0.02 0.02 0.02 0.03 0.03 0.04 0.04 0.04 0.05 0.05 0.05 0.06 0.06 0.05
0.02 0.02 0.02 0.02 0.02 0.03 0.03 0.03 0.02 0.03 0.04 0.03 0.02 0.02 0.02 0.02 0.02 0.01 0.01 0.01 0.01 0.02 0.02 0.02 0.02 0.02 0.02 0.02 0.02 0.02 0.02 0.02 0.02 0.02 0.02 0.02 0.03 0.03 0.04 0.05 0.05 0.05 0.05
MSLP
1003.61 1004.42 1005.21 1005.91 1006.47 1006.86 1007.10 1007.23 1007.32 1007.41 1007.58 1007.85 1008.22 1008.69 1009.19 1009.69 1010.14 1010.51 1010.77 1010.92 1011.00 1011.02 1011.03 1011.04 1011.08 1011.15 1011.23 1011.30 1011.33 1011.31 1011.21 1011.05 1010.82 1010.54 1010.25 1009.96 1009.72 1009.54 1009.43 1009.41 1009.48 1009.62 1009.84
1003.03 1003.85 1004.66 1005.39 1006.00 1006.44 1006.74 1006.93 1007.05 1007.17 1007.35 1007.60 1007.95 1008.38 1008.86 1009.34 1009.77 1010.12 1010.38 1010.53 1010.60 1010.61 1010.60 1010.59 1010.61 1010.66 1010.74 1010.83 1010.91 1010.96 1010.94 1010.87 1010.72 1010.51 1010.27 1010.00 1009.74 1009.52 1009.35 1009.24 1009.22 1009.29 1009.43
1002.86 1003.65 1004.45 1005.18 1005.80 1006.27 1006.60 1006.82 1006.96 1007.09 1007.26 1007.49 1007.81 1008.20 1008.63 1009.07 1009.48 1009.81 1010.05 1010.20 1010.27 1010.27 1010.24 1010.22 1010.22 1010.25 1010.32 1010.42 1010.52 1010.61 1010.65 1010.64 1010.57 1010.43 1010.23 1009.99 1009.74 1009.49 1009.26 1009.09 1008.99 1008.97 1009.03
1003.10 1003.84 1004.59 1005.29 1005.88 1006.34 1006.66 1006.88 1007.03 1007.16 1007.30 1007.50 1007.77 1008.11 1008.49 1008.88 1009.25 1009.56 1009.79 1009.93 1009.99 1010.00 1009.97 1009.93 1009.91 1009.92 1009.97 1010.04 1010.14 1010.23 1010.30 1010.32 1010.29 1010.20 1010.05 1009.84 1009.60 1009.34 1009.09 1008.86 1008.70 1008.60 1008.58
1003.71 1004.37 1005.04 1005.66 1006.19 1006.60 1006.89 1007.08 1007.21 1007.31 1007.42 1007.58 1007.80 1008.08 1008.40 1008.74 1009.06 1009.34 1009.56 1009.70 1009.76 1009.77 1009.74 1009.69 1009.65 1009.63 1009.64 1009.67 1009.73 1009.79 1009.84 1009.86 1009.84 1009.76 1009.63 1009.45 1009.23 1008.98 1008.72 1008.48 1008.28 1008.13 1008.05
1004.57 1005.14 1005.71 1006.22 1006.66 1006.98 1007.21 1007.35 1007.43 1007.50 1007.57 1007.69 1007.85 1008.07 1008.34 1008.62 1008.90 1009.15 1009.35 1009.48 1009.55 1009.57 1009.54 1009.48 1009.42 1009.36 1009.31 1009.28 1009.26 1009.26 1009.25 1009.22 1009.17 1009.09 1008.96 1008.79 1008.59 1008.37 1008.13 1007.90 1007.69 1007.53 1007.42
1005.57 1006.03 1006.47 1006.87 1007.18 1007.41 1007.55 1007.63 1007.66 1007.68 1007.72 1007.78 1007.90 1008.07 1008.28 1008.52 1008.75 1008.97 1009.15 1009.28 1009.36 1009.38 1009.35 1009.28 1009.19 1009.09 1008.97 1008.86 1008.76 1008.65 1008.55 1008.45 1008.33 1008.21 1008.06 1007.90 1007.72 1007.52 1007.32 1007.13 1006.95 1006.80 1006.69
1006.58 1006.93 1007.25 1007.51 1007.70 1007.82 1007.87 1007.88 1007.86 1007.85 1007.85 1007.89 1007.97 1008.10 1008.27 1008.46 1008.65 1008.84 1009.00 1009.13 1009.20 1009.22 1009.19 1009.11 1008.98 1008.83 1008.65 1008.45 1008.24 1008.03 1007.82 1007.61 1007.41 1007.22 1007.04 1006.86 1006.69 1006.52 1006.37 1006.22 1006.09 1005.99 1005.91
1007.53 1007.77 1007.96 1008.10 1008.17 1008.19 1008.17 1008.12 1008.07 1008.03 1008.01 1008.04 1008.10 1008.21 1008.34 1008.50 1008.66 1008.82 1008.96 1009.06 1009.12 1009.12 1009.08 1008.98 1008.82 1008.62 1008.37 1008.08 1007.78 1007.46 1007.14 1006.82 1006.53 1006.26 1006.02 1005.81 1005.64 1005.49 1005.38 1005.28 1005.21 1005.16 1005.13
1008.39 1008.54 1008.62 1008.64 1008.62 1008.55 1008.47 1008.38 1008.31 1008.26 1008.25 1008.27 1008.34 1008.44 1008.56 1008.69 1008.83 1008.95 1009.06 1009.13 1009.16 1009.14 1009.06 1008.93 1008.74 1008.48 1008.17 1007.82 1007.43 1007.01 1006.59 1006.18 1005.80 1005.45 1005.14 1004.89 1004.70 1004.55 1004.46 1004.40 1004.37 1004.37 1004.39
1009.17 1009.23 1009.23 1009.16 1009.06 1008.93 1008.81 1008.70 1008.62 1008.58 1008.59 1008.64 1008.72 1008.82 1008.94 1009.06 1009.17 1009.26 1009.32 1009.35 1009.33 1009.27 1009.15 1008.97 1008.74 1008.44 1008.08 1007.67 1007.21 1006.73 1006.24 1005.75 1005.29 1004.87 1004.50 1004.20 1003.97 1003.80 1003.70 1003.65 1003.65 1003.68 1003.73
1009.89 1009.88 1009.81 1009.68 1009.53 1009.36 1009.21 1009.10 1009.03 1009.02 1009.05 1009.13 1009.24 1009.36 1009.48 1009.59 1009.67 1009.72 1009.73 1009.70 1009.62 1009.49 1009.32 1009.09 1008.80 1008.46 1008.06 1007.62 1007.13 1006.61 1006.07 1005.54 1005.03 1004.55 1004.13 1003.77 1003.49 1003.27 1003.14 1003.06 1003.05 1003.08 1003.14
1010.56 1010.51 1010.38 1010.21 1010.02 1009.84 1009.68 1009.57 1009.52 1009.53 1009.59 1009.70 1009.83 1009.97 1010.09 1010.19 1010.24 1010.25 1010.20 1010.10 1009.95 1009.75 1009.50 1009.21 1008.88 1008.50 1008.08 1007.62 1007.13 1006.61 1006.07 1005.52 1004.99 1004.48 1004.02 1003.61 1003.26 1002.98 1002.78 1002.65 1002.58 1002.58 1002.62
1011.17 1011.09 1010.94 1010.74 1010.54 1010.34 1010.18 1010.07 1010.04 1010.06 1010.14 1010.27 1010.42 1010.56 1010.68 1010.76 1010.78 1010.74 1010.63 1010.46 1010.24 1009.96 1009.64 1009.29 1008.91 1008.51 1008.08 1007.63 1007.16 1006.67 1006.16 1005.64 1005.12 1004.61 1004.12 1003.66 1003.25 1002.90 1002.61 1002.40 1002.25 1002.17 1002.16
1011.71 1011.60 1011.44 1011.23 1011.01 1010.81 1010.65 1010.55 1010.51 1010.54 1010.63 1010.75 1010.90 1011.04 1011.14 1011.20 1011.18 1011.09 1010.93 1010.69 1010.39 1010.05 1009.67 1009.27 1008.86 1008.44 1008.02 1007.60 1007.18 1006.75 1006.30 1005.84 1005.36 1004.87 1004.38 1003.89 1003.43 1003.00 1002.62 1002.30 1002.05 1001.87 1001.77
1012.13 1012.01 1011.84 1011.64 1011.42 1011.21 1011.05 1010.94 1010.89 1010.90 1010.97 1011.08 1011.21 1011.32 1011.40 1011.42 1011.37 1011.24 1011.03 1010.74 1010.38 1009.99 1009.56 1009.13 1008.70 1008.30 1007.91 1007.54 1007.18 1006.83 1006.47 1006.08 1005.67 1005.23 1004.76 1004.27 1003.77 1003.27 1002.80 1002.37 1001.99 1001.70 1001.48
1012.42 1012.30 1012.14 1011.93 1011.72 1011.52 1011.34 1011.22 1011.15 1011.13 1011.17 1011.24 1011.33 1011.41 1011.45 1011.44 1011.36 1011.19 1010.94 1010.62 1010.23 1009.81 1009.37 1008.93 1008.51 1008.13 1007.78 1007.48 1007.20 1006.94 1006.67 1006.38 1006.05 1005.68 1005.25 1004.76 1004.24 1003.69 1003.13 1002.60 1002.11 1001.68 1001.34
1012.59 1012.48 1012.32 1012.13 1011.92 1011.73 1011.55 1011.41 1011.31 1011.26 1011.25 1011.27 1011.31 1011.35 1011.35 1011.30 1011.19 1011.01 1010.74 1010.41 1010.02 1009.60 1009.17 1008.75 1008.36 1008.02 1007.73 1007.49 1007.29 1007.12 1006.94 1006.74 1006.50 1006.19 1005.81 1005.35 1004.82 1004.23 1003.61 1002.99 1002.39 1001.85 1001.38
1012.68 1012.57 1012.42 1012.26 1012.07 1011.89 1011.71 1011.55 1011.43 1011.34 1011.29 1011.26 1011.25 1011.23 1011.19 1011.12 1010.99 1010.80 1010.54 1010.23 1009.86 1009.47 1009.07 1008.69 1008.35 1008.05 1007.82 1007.64 1007.51 1007.41 1007.31 1007.18 1007.01 1006.76 1006.43 1005.99 1005.47 1004.86 1004.20 1003.51 1002.82 1002.17 1001.59
1012.75 1012.65 1012.52 1012.38 1012.22 1012.06 1011.89 1011.73 1011.58 1011.46 1011.37 1011.29 1011.23 1011.17 1011.10 1011.00 1010.86 1010.68 1010.45 1010.16 1009.84 1009.50 1009.15 1008.82 1008.53 1008.28 1008.09 1007.96 1007.87 1007.81 1007.75 1007.67 1007.54 1007.33 1007.03 1006.62 1006.11 1005.50 1004.82 1004.09 1003.33 1002.60 1001.92
1012.88 1012.78 1012.68 1012.57 1012.44 1012.30 1012.14 1011.99 1011.83 1011.69 1011.56 1011.44 1011.34 1011.24 1011.14 1011.03 1010.89 1010.72 1010.52 1010.28 1010.02 1009.73 1009.44 1009.16 1008.91 1008.70 1008.53 1008.41 1008.33 1008.27 1008.22 1008.14 1008.02 1007.83 1007.54 1007.15 1006.65 1006.05 1005.36 1004.61 1003.82 1003.04 1002.29
1013.12 1013.04 1012.96 1012.87 1012.77 1012.65 1012.51 1012.36 1012.21 1012.05 1011.89 1011.74 1011.60 1011.48 1011.35 1011.23 1011.09 1010.95 1010.78 1010.58 1010.37 1010.14 1009.90 1009.66 1009.44 1009.24 1009.06 1008.92 1008.81 1008.71 1008.62 1008.50 1008.35 1008.14 1007.84 1007.46 1006.97 1006.39 1005.71 1004.97 1004.17 1003.36 1002.58
1013.54 1013.46 1013.39 1013.31 1013.22 1013.12 1013.00 1012.85 1012.70 1012.52 1012.35 1012.17 1012.01 1011.85 1011.71 1011.57 1011.44 1011.30 1011.16 1011.00 1010.82 1010.63 1010.42 1010.20 1009.98 1009.77 1009.56 1009.37 1009.19 1009.02 1008.84 1008.65 1008.44 1008.18 1007.86 1007.46 1006.98 1006.42 1005.77 1005.06 1004.29 1003.49 1002.70
1014.12 1014.03 1013.95 1013.88 1013.79 1013.69 1013.57 1013.42 1013.25 1013.07 1012.87 1012.67 1012.48 1012.29 1012.12 1011.97 1011.83 1011.69 1011.55 1011.41 1011.26 1011.08 1010.88 1010.66 1010.42 1010.17 1009.91 1009.64 1009.37 1009.09 1008.82 1008.53 1008.24 1007.91 1007.55 1007.14 1006.66 1006.13 1005.52 1004.86 1004.13 1003.38 1002.61
1014.84 1014.73 1014.63 1014.53 1014.43 1014.31 1014.17 1014.01 1013.82 1013.62 1013.39 1013.16 1012.94 1012.72 1012.52 1012.34 1012.17 1012.02 1011.88 1011.73 1011.57 1011.38 1011.18 1010.93 1010.66 1010.35 1010.02 1009.67 1009.30 1008.92 1008.53 1008.15 1007.76 1007.37 1006.96 1006.53 1006.07 1005.56 1005.01 1004.40 1003.75 1003.05 1002.33
1015.62 1015.48 1015.35 1015.22 1015.09 1014.94 1014.77 1014.58 1014.37 1014.13 1013.87 1013.61 1013.34 1013.09 1012.84 1012.62 1012.41 1012.23 1012.05 1011.87 1011.69 1011.48 1011.24 1010.97 1010.65 1010.29 1009.89 1009.45 1009.00 1008.52 1008.05 1007.58 1007.11 1006.66 1006.21 1005.77 1005.31 1004.84 1004.34 1003.79 1003.21 1002.58 1001.92
Thickness
5798 5793 5790 5787 5784 5781 5778 5775 5773 5770 5768 5765 5763 5760 5758 5756 5755 5753 5751 5750 5747 5746 5745 5743 5741 5741 5740 5739 5738 5737 5735 5732 5725 5728 5732 5734 5732 5730 5729 5727 5726 5724 5722
5797 5791 5787 5784 5781 5778 5775 5773 5771 5767 5765 5763 5760 5757 5755 5753 5751 5749 5746 5745 5743 5740 5739 5737 5735 5736 5733 5732 5730 5729 5728 5726 5722 5718 5722 5724 5724 5724 5723 5721 5721 5721 5719
5795 5789 5784 5780 5777 5774 5772 5770 5767 5764 5761 5759 5757 5754 5751 5750 5748 5745 5743 5740 5738 5736 5734 5731 5729 5728 5725 5725 5723 5721 5720 5720 5717 5714 5714 5715 5716 5717 5715 5715 5715 5714 5714
5792 5786 5780 5778 5775 5772 5769 5767 5765 5762 5758 5755 5753 5751 5748 5746 5744 5741 5738 5736 5733 5731 5729 5726 5724 5721 5719 5717 5716 5714 5714 5711 5710 5708 5707 5707 5707 5709 5707 5705 5704 5705 5705
5788 5782 5778 5775 5773 5769 5766 5763 5761 5758 5756 5753 5750 5747 5745 5742 5740 5736 5733 5731 5727 5724 5722 5720 5718 5716 5714 5711 5709 5707 5706 5704 5702 5700 5698 5698 5698 5697 5696 5698 5695 5696 5697
5783 5778 5775 5771 5767 5764 5761 5758 5756 5753 5751 5748 5745 5742 5740 5739 5735 5731 5727 5724 5722 5718 5715 5713 5711 5710 5707 5704 5702 5700 5699 5696 5694 5691 5690 5688 5689 5690 5690 5690 5688 5686 5684
5776 5773 5770 5767 5762 5760 5758 5754 5750 5747 5745 5742 5740 5737 5734 5730 5727 5724 5720 5718 5716 5713 5710 5707 5706 5704 5700 5697 5695 5694 5692 5690 5689 5686 5683 5682 5682 5683 5682 5680 5680 5679 5677
5770 5767 5765 5761 5757 5755 5751 5748 5745 5742 5739 5736 5734 5731 5727 5723 5719 5717 5714 5712 5709 5707 5704 5701 5697 5694 5692 5688 5687 5685 5684 5683 5682 5681 5679 5678 5678 5677 5676 5675 5673 5673 5673
5763 5760 5759 5756 5752 5749 5745 5742 5740 5736 5733 5731 5729 5725 5721 5715 5712 5709 5705 5704 5701 5699 5697 5694 5691 5686 5682 5680 5678 5676 5675 5674 5675 5674 5673 5672 5671 5670 5669 5667 5666 5663 5662
5757 5755 5753 5751 5746 5743 5740 5737 5734 5731 5727 5725 5722 5719 5714 5709 5704 5701 5697 5696 5693 5690 5688 5685 5681 5677 5674 5671 5668 5666 5664 5664 5664 5665 5664 5664 5663 5663 5662 5660 5658 5655 5654
5752 5750 5747 5744 5741 5738 5734 5731 5727 5723 5720 5717 5714 5711 5707 5703 5697 5693 5689 5687 5685 5683 5680 5677 5673 5669 5665 5662 5659 5657 5656 5655 5655 5655 5656 5656 5656 5655 5655 5653 5652 5650 5647
5744 5741 5738 5736 5734 5732 5726 5723 5720 5716 5712 5708 5705 5701 5699 5695 5690 5685 5681 5677 5675 5674 5672 5669 5665 5660 5657 5654 5652 5650 5648 5646 5646 5646 5646 5646 5646 5646 5646 5645 5645 5644 5642
5734 5731 5729 5727 5725 5723 5718 5714 5711 5708 5704 5700 5696 5692 5689 5686 5681 5677 5673 5669 5666 5664 5662 5660 5656 5652 5649 5647 5646 5643 5640 5639 5638 5637 5637 5637 5637 5637 5637 5637 5636 5635 5633
5723 5721 5719 5717 5715 5713 5711 5708 5704 5700 5696 5693 5689 5685 5683 5678 5672 5668 5664 5659 5656 5653 5651 5648 5646 5644 5642 5640 5639 5636 5634 5632 5630 5629 5628 5629 5629 5628 5627 5626 5625 5625 5622
5714 5712 5711 5709 5707 5703 5700 5697 5695 5692 5690 5686 5683 5680 5674 5668 5662 5658 5654 5651 5648 5645 5640 5638 5637 5636 5635 5633 5631 5629 5627 5624 5622 5621 5620 5619 5619 5618 5616 5617 5615 5614 5612
5703 5702 5702 5701 5698 5694 5690 5686 5682 5681 5678 5676 5674 5670 5665 5660 5654 5649 5645 5643 5639 5636 5632 5631 5630 5629 5627 5625 5623 5620 5618 5615 5614 5613 5612 5611 5609 5608 5607 5607 5605 5603 5602
5694 5693 5693 5692 5689 5686 5682 5678 5674 5669 5666 5664 5662 5659 5655 5649 5644 5639 5636 5633 5630 5627 5625 5625 5623 5622 5619 5617 5615 5612 5609 5608 5606 5605 5604 5603 5601 5600 5598 5597 5596 5594 5594
5687 5685 5683 5682 5680 5678 5675 5672 5669 5665 5661 5657 5652 5647 5643 5638 5634 5631 5627 5623 5622 5620 5620 5618 5617 5615 5613 5610 5608 5605 5603 5601 5599 5598 5597 5595 5593 5591 5589 5588 5587 5586 5586
5678 5676 5674 5673 5672 5669 5667 5665 5662 5659 5656 5652 5646 5638 5632 5628 5624 5621 5618 5618 5618 5616 5614 5612 5611 5608 5606 5603 5601 5599 5596 5594 5592 5591 5590 5588 5586 5583 5581 5579 5579 5577 5577
5668 5665 5663 5663 5662 5659 5657 5654 5652 5650 5647 5643 5638 5633 5627 5622 5620 5616 5612 5613 5612 5610 5608 5605 5603 5600 5598 5595 5593 5590 5588 5586 5584 5583 5582 5580 5578 5576 5573 5572 5570 5570 5570
5660 5657 5655 5654 5653 5650 5647 5645 5642 5640 5637 5634 5631 5628 5622 5620 5617 5614 5610 5607 5605 5603 5600 5597 5595 5592 5589 5587 5585 5582 5580 5578 5576 5574 5573 5572 5570 5568 5567 5566 5564 5563 5563
5650 5649 5648 5646 5644 5641 5638 5637 5634 5632 5629 5626 5623 5620 5614 5613 5612 5609 5605 5602 5600 5598 5594 5590 5588 5585 5583 5580 5577 5574 5572 5570 5568 5566 5565 5564 5562 5561 5561 5559 5558 5556 5556
5641 5640 5639 5637 5635 5632 5630 5629 5626 5624 5621 5619 5616 5612 5608 5606 5604 5601 5598 5596 5593 5590 5587 5583 5580 5578 5576 5573 5570 5567 5563 5561 5560 5558 5556 5555 5555 5554 5553 5552 5551 5550 5549
5634 5633 5630 5628 5626 5624 5622 5620 5618 5616 5614 5611 5608 5604 5601 5597 5596 5594 5591 5588 5585 5582 5579 5576 5572 5570 5567 5564 5561 5558 5555 5552 5551 5550 5549 5548 5547 5547 5546 5545 5545 5544 5543
5627 5625 5622 5620 5618 5617 5615 5613 5610 5608 5606 5604 5600 5597 5594 5592 5589 5587 5584 5581 5578 5575 5572 5569 5566 5563 5560 5556 5553 5550 5547 5544 5542 5540 5540 5540 5540 5540 5539 5539 5538 5538 5538
5620 5618 5616 5613 5611 5609 5607 5605 5603 5601 5599 5596 5594 5592 5589 5586 5583 5580 5577 5573 5571 5568 5565 5562 5559 5556 5553 5550 5546 5542 5539 5537 5535 5533 5531 5532 5532 5533 5532 5532 5532 5532 5532